Regional Weather Roundup
Issued by NWS Charleston, SC

Home | Current Version | Previous Version | Text Only | Print | Product List | Glossary On
Versions: 1 2 3 4 5 6 7 8 9 10 11 12 13 14 15 16 17 18 19 20 21 22 23 24 25 26 27 28 29 30 31 32 33 34 35 36 37 38 39 40 41 42 43 44 45 46 47 48 49 50
190
ASUS42 KCHS 211927
RWRCHS

REGIONAL WEATHER ROUNDUP
NATIONAL WEATHER SERVICE CHARLESTON SC
300 PM EDT FRI JUL 21 2017

NOTE: "FAIR" INDICATES FEW OR NO CLOUDS BELOW 12,000 FEET WITH NO
SIGNIFICANT WEATHER AND/OR OBSTRUCTIONS TO VISIBILITY.

NOT ALL STATIONS ARE QUALITY CONTROLLED. USE DATA WITH CAUTION...
ESPECIALLY DEWPOINT OBSERVATIONS.

SCZ027-030-031-034>040-042>050-212000-
...SOUTHEAST SOUTH CAROLINA...

CITY           SKY/WX    TMP DP  RH WIND       PRES   REMARKS
N CHARLESTON   MOSUNNY   90  76  63 S14       30.01F HX 101
WATERFRONT PRK   N/A     85  77  76 S9        30.02F HX  95
JOHNS ISLAND   FAIR      88  77  70 S8G15     30.03F HX 100
PINOPOLIS        N/A     91  73  55 CALM      29.94F HX 100
MONCKS CORNER  FAIR      91  70  49 SW5       30.00F HX  97
SUMMERVILLE    FAIR      91  72  52 CALM      30.01F HX  98
BEAUFORT MCAS  MOSUNNY   91  79  67 VRB6      30.02F HX 107
BEAUFORT ARPT  FAIR      88  75  66 SW8       30.02F HX  97
HILTON HEAD IS SUNNY     86  75  70 MISG      30.04F HX  95
WALTERBORO     MOCLDY    91  73  55 S9        30.01F HX 100
ALLENDALE      NOT AVBL

...SOUTHERN MIDLANDS AND PEE DEE...

CITY           SKY/WX    TMP DP  RH WIND       PRES   REMARKS
GEORGETOWN     FAIR      88  79  74 S8        30.02F HX 102
KINGSTREE      FAIR      91  73  55 S6        29.99F HX 100
ORANGEBURG     MOSUNNY   92  74  55 MISG      30.00F HX 101
BARNWELL       FAIR      95  77  55 S6        29.99F HX 109
AIKEN          MOCLDY    86  70  58 W15       30.05S HX  90
MANNING        FAIR      91  70  49 NW16      30.00F HX  97
COLUMBIA       MOSUNNY   95  73  48 VRB7      29.98F HX 104
SUMTER         PTSUNNY   94  72  49 S10       29.97F HX 102
FLORENCE       MOSUNNY   93  75  55 S8        29.99F HX 104
MYRTLE BEACH   MOSUNNY   88  75  66 S14       30.03F HX  97
N MYRTLE BEACH SUNNY     85  78  80 S14G23    30.01F HX  96

$$

GAZ063-065-086>088-099>101-113>116-118-119-134>141-150-212000-
...SOUTHEAST GEORGIA...

CITY           SKY/WX    TMP DP  RH WIND       PRES   REMARKS
SAVANNAH ARPT  MOSUNNY   93  75  55 SE9       30.01F HX 104
HUNTER AAF     SUNNY     91  75  60 S9        29.99F HX 101
FORT STEWART   PTSUNNY   92  74  56 SE8       29.99F HX 102
STATESBORO     MOSUNNY   94  75  53 SE7       30.00F HX 105
SYLVANIA       PTCLDY    93  79  63 S5        30.01F HX 109
CLAXTON        FAIR      94  76  56 SE3       29.99F HX 107

...CSRA...CENTRAL AND FAR SOUTHEAST GEORGIA...

CITY           SKY/WX    TMP DP  RH WIND       PRES   REMARKS
THOMSON        CLOUDY    94  71  47 N10       30.04F HX 102
AUGUSTA-BUSH   SUNNY     96  74  48 CALM      29.98F HX 107
AUGUSTA-DANIEL MOSUNNY   95  70  44 VRB5      30.00F HX 101
SWAINSBORO     HVY RAIN  82  77  83 SE16      30.01S HX  91
VIDALIA        CLOUDY    82  73  74 N13       30.01S
EASTMAN        FAIR      92  62  36 N3        30.00F HX  93
HAZLEHURST     FAIR      94  74  51 SW7       29.97F HX 104
ALMA           MOSUNNY   94  74  52 VRB5      30.00F HX 104
WAYCROSS       MOSUNNY   95  78  57 S7        29.99F HX 110
JESUP          NOT AVBL
BAXLEY         FAIR      95  79  59 S6        29.99F HX 112
BRUNSWICK      SUNNY     91  75  59 SE8       30.03F HX 102
SAINT SIMONS   SUNNY     89  75  63 SE13G21   30.03F HX  99

$$

SCZ027-028-034-036>038-045-046-048>050-GAZ119-141-212000-
...LAKE AND SUPPLEMENTAL COASTAL OBSERVATIONS...

STATION/POSITION TIME  TEMP    WIND        PRES    WAVE   SWELL
                       AIR SEA DIR/SP/G            HT/PER HT/PER/DIR
                 (UTC) (F)     (DEG/KT/KT) (MB)    (FT/S) (FT/S/D)
WINYAH BAY       1845   87     180/ 11     1016.0F
LAKE MURRAY      1830   94     170/  2/  2 1014.6F
ACE BASIN NERRS  1845   88     170/  1     1017.0S
FORT PULASKI     1900   87 86  200/  8/ 12 1017.1
SAPELO ISLAND    1900   92     160/  8     1017.0

$$

ANZ835-935-AMZ111-154-330-350-352-354-370-450-454-472-212000-
...C-MAN AND BUOY OBSERVATIONS...

STATION/POSITION TIME  TEMP    WIND        PRES    WAVE   SWELL
                       AIR SEA DIR/SP/G            HT/PER HT/PER/DIR
                 (UTC) (F)     (DEG/KT/KT) (MB)    (FT/S) (FT/S/D)
BUOY 41004       1910   83 84  210/  8/ 10 1016.9
BUOY 41008       1850   82 84  170/  8/ 10 1017.2F   2/ 7   2/ 90/ 7
FOLLY BEACH CMAN 1900   84     210/ 12/ 13 1017.5F
CAPERS NEARSHORE 1908   82 85  220/ 10/ 14 1016.6F
FRIPP NEARSHORE  1908   83 85  200/ 10/ 14 1016.5F


STATION/POSITION TIME  TEMP    WIND        PRES    WAVE   SWELL
                       AIR SEA DIR/SP/G            HT/PER HT/PER/DIR
                 (UTC) (F)     (DEG/KT/KT) (MB)    (FT/S) (FT/S/D)
5E ST. MARYS GA  1900      85                N/A     2/ 8
FRYING PAN BUOY  1910   83     230/ 14/ 16 1016.5
BUOY 41025       1850   83 85  210/ 16/ 19 1015.6F   4/ 8   2/130/ 8
CAPE LOOKOUT NC  1900   84     220/ 10/ 14 1015.7F
BUOY 41002       1850   82 84  230/ 10/ 12 1018.7F   4/ 9   3/110/ 9
BUOY 41010       1910   83 85  110/  4/  6 1018.0
ST AUGUSTINE FL  1900   81 83  110/  8/  9 1017.8F


$$




USA.gov is the U.S. government's official web portal to all federal, state and local government web resources and services.